• In Netherlands
  • List of Countries
  • For 7 days
  • Water Temperature
  • Satellite Maps
  • Weather Map
  • Weather Widgets
  • user-avatar
    Login

    Hourly Weather Jaú

    Today, 24 September, Sunday

    Time Temperature Precipitation Wind Pressure Humidity
    00:00 +34°C° 0 mm 2 mps 755 mmHg 59%
    01:00 +34°C° 0 mm 2 mps 755 mmHg 58%
    02:00 +34°C° 0 mm 2 mps 755 mmHg 57%
    03:00 +34°C° 0 mm 3 mps 755 mmHg 54%
    04:00 +34°C° 0 mm 3 mps 755 mmHg 53%
    05:00 +34°C° 0 mm 3 mps 755 mmHg 52%
    06:00 +34°C° 0 mm 4 mps 755 mmHg 51%
    07:00 +35°C° 0 mm 4 mps 756 mmHg 46%
    08:00 +37°C° 0 mm 4 mps 756 mmHg 42%
    09:00 +38°C° 0 mm 4 mps 756 mmHg 40%
    10:00 +40°C° 0 mm 4 mps 756 mmHg 37%
    11:00 +41°C° 0 mm 4 mps 755 mmHg 34%
    12:00 +42°C° 0 mm 5 mps 755 mmHg 31%
    13:00 +42°C° 0 mm 5 mps 755 mmHg 30%
    14:00 +42°C° 0 mm 5 mps 755 mmHg 30%
    15:00 +42°C° 0 mm 5 mps 754 mmHg 32%
    16:00 +41°C° 0 mm 4 mps 754 mmHg 37%
    17:00 +40°C° 0 mm 4 mps 754 mmHg 41%
    18:00 +37°C° 0 mm 4 mps 754 mmHg 46%
    19:00 +37°C° 0 mm 3 mps 755 mmHg 49%
    20:00 +36°C° 0 mm 3 mps 755 mmHg 52%
    21:00 +36°C° 0 mm 3 mps 755 mmHg 55%
    22:00 +35°C° 0 mm 2 mps 755 mmHg 56%
    23:00 +35°C° 0 mm 2 mps 755 mmHg 58%

    Tomorrow, 25 September, Monday

    Time Temperature Precipitation Wind Pressure Humidity
    00:00 +34°C° 0 mm 2 mps 755 mmHg 59%
    01:00 +34°C° 0 mm 2 mps 755 mmHg 61%
    02:00 +32°C° 0 mm 1 mps 755 mmHg 63%
    03:00 +32°C° 0 mm 1 mps 754 mmHg 65%
    04:00 +31°C° 0 mm 1 mps 755 mmHg 65%
    05:00 +31°C° 0 mm 1 mps 755 mmHg 66%
    06:00 +31°C° 0 mm 1 mps 755 mmHg 67%
    07:00 +33°C° 0 mm 1 mps 755 mmHg 60%
    08:00 +34°C° 0 mm 1 mps 755 mmHg 54%
    09:00 +36°C° 0 mm 1 mps 756 mmHg 48%
    10:00 +37°C° 0 mm 1 mps 755 mmHg 43%
    11:00 +39°C° 0 mm 2 mps 755 mmHg 37%
    12:00 +40°C° 0 mm 2 mps 755 mmHg 32%
    13:00 +40°C° 0 mm 3 mps 754 mmHg 30%
    14:00 +42°C° 0 mm 3 mps 754 mmHg 28%
    15:00 +42°C° 0 mm 4 mps 754 mmHg 26%
    16:00 +41°C° 0 mm 4 mps 754 mmHg 30%
    17:00 +38°C° 0 mm 4 mps 754 mmHg 34%
    18:00 +37°C° 0 mm 4 mps 754 mmHg 39%
    19:00 +36°C° 0 mm 3 mps 754 mmHg 42%
    20:00 +36°C° 0 mm 3 mps 754 mmHg 45%
    21:00 +35°C° 0 mm 3 mps 755 mmHg 47%
    22:00 +35°C° 0 mm 2 mps 755 mmHg 49%
    23:00 +34°C° 0 mm 2 mps 755 mmHg 51%

    Day after tomorrow, 26 September, Tuesday

    Time Temperature Precipitation Wind Pressure Humidity
    00:00 +32°C° 0 mm 1 mps 754 mmHg 53%
    01:00 +32°C° 0 mm 1 mps 754 mmHg 54%
    02:00 +31°C° 0 mm 1 mps 754 mmHg 54%
    03:00 +31°C° 0 mm 1 mps 754 mmHg 55%
    04:00 +31°C° 0 mm 1 mps 754 mmHg 54%
    05:00 +31°C° 0 mm 1 mps 754 mmHg 54%
    06:00 +31°C° 0 mm 1 mps 754 mmHg 53%
    07:00 +33°C° 0 mm 1 mps 755 mmHg 47%
    08:00 +35°C° 0 mm 2 mps 755 mmHg 40%
    09:00 +37°C° 0 mm 2 mps 756 mmHg 34%
    10:00 +38°C° 0 mm 2 mps 755 mmHg 30%
    11:00 +40°C° 0 mm 2 mps 755 mmHg 26%
    12:00 +41°C° 0 mm 2 mps 755 mmHg 22%
    13:00 +41°C° 0 mm 2 mps 754 mmHg 22%
    14:00 +42°C° 0 mm 3 mps 754 mmHg 21%
    15:00 +42°C° 0 mm 3 mps 753 mmHg 20%
    16:00 +40°C° 0 mm 2 mps 753 mmHg 23%
    17:00 +39°C° 0 mm 2 mps 753 mmHg 26%
    18:00 +37°C° 0 mm 2 mps 754 mmHg 29%
    19:00 +37°C° 0 mm 2 mps 754 mmHg 32%
    20:00 +36°C° 0 mm 3 mps 754 mmHg 35%
    21:00 +36°C° 0 mm 3 mps 755 mmHg 38%
    22:00 +35°C° 0 mm 3 mps 755 mmHg 41%
    23:00 +35°C° 0 mm 3 mps 755 mmHg 45%

    27 September, Wednesday

    Time Temperature Precipitation Wind Pressure Humidity
    00:00 +35°C° 0 mm 3 mps 755 mmHg 48%
    01:00 +34°C° 0 mm 2 mps 754 mmHg 49%
    02:00 +32°C° 0 mm 2 mps 754 mmHg 50%
    03:00 +32°C° 0 mm 1 mps 754 mmHg 51%
    04:00 +32°C° 0 mm 1 mps 754 mmHg 49%
    05:00 +32°C° 0 mm 1 mps 755 mmHg 48%
    06:00 +31°C° 0 mm 1 mps 755 mmHg 46%
    07:00 +33°C° 0 mm 1 mps 756 mmHg 41%
    08:00 +35°C° 0 mm 1 mps 756 mmHg 36%
    09:00 +37°C° 0 mm 1 mps 756 mmHg 32%
    10:00 +39°C° 0 mm 1 mps 756 mmHg 29%
    11:00 +40°C° 0 mm 1 mps 756 mmHg 26%
    12:00 +41°C° 0 mm 1 mps 756 mmHg 24%
    13:00 +41°C° 0 mm 2 mps 755 mmHg 23%
    14:00 +41°C° 0 mm 2 mps 755 mmHg 23%
    15:00 +42°C° 0 mm 3 mps 754 mmHg 23%
    16:00 +40°C° 0 mm 3 mps 754 mmHg 27%
    17:00 +39°C° 0 mm 3 mps 754 mmHg 30%
    18:00 +38°C° 0 mm 3 mps 754 mmHg 34%
    19:00 +37°C° 0 mm 3 mps 755 mmHg 37%
    20:00 +36°C° 0 mm 3 mps 755 mmHg 40%
    21:00 +36°C° 0 mm 3 mps 755 mmHg 43%
    22:00 +35°C° 0 mm 2 mps 755 mmHg 46%
    23:00 +35°C° 0 mm 2 mps 755 mmHg 48%

    28 September, Thursday

    Time Temperature Precipitation Wind Pressure Humidity
    00:00 +34°C° 0 mm 2 mps 754 mmHg 50%
    01:00 +34°C° 0 mm 2 mps 754 mmHg 51%
    02:00 +32°C° 0 mm 1 mps 754 mmHg 51%
    03:00 +32°C° 0 mm 1 mps 754 mmHg 52%
    04:00 +32°C° 0 mm 1 mps 754 mmHg 51%
    05:00 +32°C° 0 mm 1 mps 755 mmHg 50%
    06:00 +31°C° 0 mm 1 mps 755 mmHg 50%
    07:00 +34°C° 0 mm 2 mps 755 mmHg 44%
    08:00 +36°C° 0 mm 2 mps 756 mmHg 38%
    09:00 +38°C° 0 mm 2 mps 756 mmHg 33%
    10:00 +39°C° 0 mm 2 mps 756 mmHg 30%
    11:00 +40°C° 0 mm 2 mps 755 mmHg 27%
    12:00 +41°C° 0 mm 1 mps 755 mmHg 24%
    13:00 +41°C° 0 mm 2 mps 755 mmHg 23%
    14:00 +41°C° 0 mm 2 mps 754 mmHg 22%
    15:00 +42°C° 0 mm 3 mps 754 mmHg 21%
    16:00 +40°C° 0 mm 2 mps 754 mmHg 24%
    17:00 +39°C° 0 mm 2 mps 754 mmHg 26%
    18:00 +38°C° 0 mm 2 mps 754 mmHg 29%
    19:00 +37°C° 0 mm 2 mps 754 mmHg 31%
    20:00 +36°C° 0 mm 2 mps 755 mmHg 34%
    21:00 +35°C° 0 mm 2 mps 755 mmHg 36%
    22:00 +34°C° 0 mm 1 mps 755 mmHg 38%
    23:00 +33°C° 0 mm 1 mps 754 mmHg 40%

    29 September, Friday

    Time Temperature Precipitation Wind Pressure Humidity
    00:00 +32°C° 0 mm 1 mps 754 mmHg 42%
    01:00 +32°C° 0 mm 1 mps 754 mmHg 42%
    02:00 +32°C° 0 mm 2 mps 753 mmHg 43%
    03:00 +32°C° 0 mm 2 mps 753 mmHg 44%
    04:00 +32°C° 0 mm 2 mps 754 mmHg 42%
    05:00 +34°C° 0 mm 3 mps 754 mmHg 41%
    06:00 +34°C° 0 mm 3 mps 754 mmHg 39%
    07:00 +35°C° 0 mm 3 mps 755 mmHg 34%
    08:00 +37°C° 0 mm 3 mps 755 mmHg 29%
    09:00 +39°C° 0 mm 3 mps 755 mmHg 23%
    10:00 +40°C° 0 mm 2 mps 755 mmHg 21%
    11:00 +41°C° 0 mm 2 mps 754 mmHg 20%
    12:00 +41°C° 0 mm 1 mps 754 mmHg 18%
    13:00 +42°C° 0 mm 2 mps 753 mmHg 17%
    14:00 +42°C° 0 mm 2 mps 753 mmHg 17%
    15:00 +43°C° 0 mm 3 mps 752 mmHg 16%
    16:00 +42°C° 0 mm 3 mps 753 mmHg 19%
    17:00 +39°C° 0 mm 2 mps 753 mmHg 22%
    18:00 +38°C° 0 mm 2 mps 753 mmHg 25%
    19:00 +37°C° 0 mm 2 mps 753 mmHg 29%
    20:00 +37°C° 0 mm 2 mps 754 mmHg 32%
    21:00 +36°C° 0 mm 2 mps 754 mmHg 35%
    22:00 +35°C° 0 mm 2 mps 754 mmHg 39%
    23:00 +34°C° 0 mm 2 mps 754 mmHg 43%
    Show more